Key West NAF, FL

11:44 AM EDT on March 30, 2017 (GMT -0400)
Key West Naval Air Station

Weather History for KNQX - January, 2014

Change the Weather History Date:

Wednesday, January 22, 2014

  Actual Average Record
Temperature  
Mean Temperature 64 °F -  
Max Temperature 69 °F 73 °F 85 °F (1959)
Min Temperature 59 °F 64 °F 48 °F (2009)
Degree Days  
Heating Degree Days 1    
Growing Degree Days 14 (Base 50)    
Moisture  
Dew Point 52 °F    
Average Humidity 66    
Maximum Humidity 81    
Minimum Humidity 53    
Precipitation  
Precipitation 0.00 in - - ()
Sea Level Pressure  
Sea Level Pressure 30.08 in    
Wind  
Wind Speed 13 mph (NNW)    
Max Wind Speed 17 mph    
Max Gust Speed 28 mph    
Visibility 10 miles    
Events      
Averages and records for this station are not official NWS values.
T = Trace of Precipitation, MM = Missing Value Source: NWS Daily Summary

Daily Weather History Graph

Daily Weather History Graph

Search for Another Location

Airport or City:

Trip Planner

Search our weather history database for the weather conditions in past years. The results will help you decide how hot, cold, wet, or windy it might be!

Date:

Astronomy

Jan. 22, 2014 Rise Set
Actual Time 7:11 AM EST 6:05 PM EST
Civil Twilight 6:47 AM EST 6:29 PM EST
Nautical Twilight 6:20 AM EST 6:56 PM EST
Astronomical Twilight 5:52 AM EST 7:24 PM EST
Moon 11:50 PM EST (1/22) 10:54 AM EST (1/22)
Length of Visible Light 11h 41m
Length of Day
10h 53m
Waning Gibbous, 65% of the Moon is Illuminated
Jan 22
Waning Gibbous
Jan 24
Last Quarter
Jan 30
New
Feb 6
First Quarter
Feb 14
Full

Hourly Weather History & Observations

Time (EST) Temp. Dew Point Humidity Pressure Visibility Wind Dir Wind Speed Gust Speed Precip Events Conditions
12:53 AM 69.1 °F 62.1 °F 78% 29.97 in 10.0 mi West 9.2 mph - N/A   Partly Cloudy
1:53 AM 69.1 °F 61.0 °F 75% 29.96 in 10.0 mi WNW 12.7 mph - N/A   Clear
2:53 AM 69.1 °F 61.0 °F 75% 29.95 in 10.0 mi WNW 16.1 mph 23.0 mph N/A   Scattered Clouds
3:53 AM 66.9 °F 61.0 °F 81% 29.97 in 10.0 mi NNW 17.3 mph 24.2 mph N/A   Mostly Cloudy
4:22 AM 66.2 °F 59.0 °F 78% 29.99 in 10.0 mi NNW 17.3 mph - N/A   Mostly Cloudy
4:53 AM 66.0 °F 57.0 °F 73% 29.99 in 10.0 mi NNW 15.0 mph 27.6 mph N/A   Mostly Cloudy
5:53 AM 64.9 °F 54.0 °F 68% 30.02 in 10.0 mi NNW 16.1 mph - N/A   Partly Cloudy
5:59 AM 64.4 °F 53.6 °F 68% 30.02 in 10.0 mi NNW 15.0 mph 24.2 mph N/A   Partly Cloudy
6:53 AM 64.9 °F 53.1 °F 65% 30.04 in 10.0 mi NNW 16.1 mph - N/A   Mostly Cloudy
7:53 AM 64.0 °F 51.1 °F 63% 30.07 in 10.0 mi NNW 15.0 mph 23.0 mph N/A   Mostly Cloudy
8:53 AM 66.0 °F 52.0 °F 60% 30.10 in 10.0 mi North 16.1 mph - N/A   Mostly Cloudy
9:53 AM 66.2 °F 52.0 °F 60% 30.12 in 10.0 mi North 13.8 mph - N/A   Mostly Cloudy
10:53 AM 64.4 °F 51.8 °F 64% 30.14 in 10.0 mi North 12.7 mph - N/A   Mostly Cloudy
11:53 AM 62.6 °F 51.8 °F 68% 30.14 in 10.0 mi North 10.4 mph - N/A   Mostly Cloudy
12:53 PM 62.6 °F 51.8 °F 68% 30.12 in 10.0 mi NW 13.8 mph - N/A   Mostly Cloudy
1:53 PM 66.0 °F 51.1 °F 59% 30.10 in 10.0 mi NNW 12.7 mph - N/A   Mostly Cloudy
2:53 PM 64.0 °F 50.0 °F 60% 30.10 in 10.0 mi NNW 11.5 mph - N/A   Mostly Cloudy
3:53 PM 64.0 °F 50.0 °F 60% 30.10 in 10.0 mi North 11.5 mph - N/A   Mostly Cloudy
4:53 PM 63.0 °F 50.0 °F 63% 30.11 in 10.0 mi NNW 13.8 mph - N/A   Mostly Cloudy
5:53 PM 61.0 °F 48.9 °F 64% 30.12 in 10.0 mi NNW 16.1 mph - N/A   Scattered Clouds
6:53 PM 60.1 °F 48.9 °F 67% 30.14 in 10.0 mi North 16.1 mph - N/A   Partly Cloudy
7:53 PM 60.1 °F 48.9 °F 67% 30.16 in 10.0 mi North 16.1 mph - N/A   Partly Cloudy
8:53 PM 59.0 °F 48.0 °F 67% 30.17 in 10.0 mi North 10.4 mph - N/A   Clear
9:53 PM 59.0 °F 44.1 °F 58% 30.18 in 10.0 mi North 11.5 mph - N/A   Clear
10:53 PM 60.1 °F 45.0 °F 57% 30.18 in 10.0 mi North 12.7 mph - N/A   Clear
11:53 PM 60.1 °F 43.0 °F 53% 30.17 in 10.0 mi North 10.4 mph - N/A   Clear